DW7831 Weather Reports


time (UTC)temp
C
wind
direction
speed
KPH
gust
KPH
rain 1hr
cm
rain 24hr
cm
rain mn
cm
humidity
%
barometer
mb
20260901011516 17 198 0.0 0.0 0.00 0.00 0.08 100 1018.4
20260901010012 17 198 0.0 0.0 0.00 0.00 0.08 100 1018.2
20260901004508 17 198 0.0 0.0 0.00 0.00 0.08 100 1018.2
20260901003007 17 198 0.0 0.0 0.00 0.00 0.08 100 1018.1
20260901001504 17 198 0.0 0.0 0.00 0.00 0.05 100 1018.2
20260901000104 17 198 0.0 0.0 0.00 0.00 0.05 100 1018.3
20260831234555 17 198 0.0 0.0 0.00 0.00 0.03 100 1018.4
20260831233052 18 198 0.0 0.0 0.00 0.00 0.03 100 1018.4
20260831231549 18 198 0.0 0.0 0.00 0.00 0.03 100 1018.5
20260831230043 18 198 0.0 0.0 0.00 0.00 0.03 100 1018.7
20260831224539 18 198 0.0 0.0 0.00 0.00 0.03 100 1018.8
20260831223037 18 198 0.0 0.0 0.00 0.00 0.03 100 1018.9
20260831221532 18 198 0.0 0.0 0.00 0.00 0.03 100 1018.8
20260831220026 18 198 0.0 0.0 0.00 0.00 0.03 100 1018.8
20260831214525 18 198 0.0 0.0 0.00 0.00 0.03 100 1018.8
20260831213018 18 198 0.0 0.0 0.00 0.00 0.03 100 1018.8
20260831211525 19 198 0.0 0.0 0.00 0.00 0.03 3 1018.8
20260831210010 19 198 0.0 0.0 0.00 0.00 0.03 8 1018.9
20260831204510 19 198 1.6 0.0 0.00 0.00 0.03 14 1019.1
20260831203005 20 199 1.6 0.0 0.00 0.00 0.03 18 1018.9
20260831201557 20 200 0.0 0.0 0.00 0.00 0.03 17 1019.0
20260831200056 20 196 1.6 0.0 0.00 0.00 0.03 12 1019.1
20260831194608 20 196 0.0 0.0 0.00 0.00 0.03 10 1019.1
20260831193051 20 196 0.0 0.0 0.00 0.00 0.03 9 1019.2
20260831191550 20 196 0.0 0.0 0.00 0.00 0.03 14 1019.4
20260831190045 20 196 0.0 0.0 0.00 0.00 0.03 10 1019.6
20260831184538 19 196 0.0 0.0 0.00 0.00 0.03 100 1019.8
20260831183031 19 196 1.6 0.0 0.00 0.00 0.03 100 1019.8
20260831181528 18 196 0.0 0.0 0.00 0.00 0.03 100 1019.8
20260831180025 18 196 1.6 0.0 0.00 0.00 0.03 100 1020.2
20260831174520 18 194 0.0 0.0 0.00 0.00 0.03 100 1020.1
20260831173025 18 194 0.0 0.0 0.00 0.00 0.03 100 1020.3
20260831171514 19 194 0.0 0.0 0.00 0.00 0.00 5 1020.1
20260831170011 19 198 4.8 0.0 0.00 0.00 0.00 21 1020.5
20260831164506 20 205 6.4 0.0 0.00 0.00 0.00 31 1020.4
20260831163005 21 231 3.2 0.0 0.00 0.00 0.00 46 1020.5
20260831161558 21 169 1.6 0.0 0.00 0.00 0.00 49 1020.4
20260831160055 22 143 0.0 0.0 0.00 0.00 0.00 50 1020.4
20260831154550 22 140 0.0 0.0 0.00 0.00 0.00 50 1020.4
20260831153043 22 140 0.0 0.0 0.00 0.00 0.00 48 1020.5
20260831151539 21 138 0.0 0.0 0.00 0.00 0.00 46 1020.7
20260831150034 21 136 1.6 0.0 0.00 0.00 0.00 40 1020.6
20260831144530 20 124 1.6 0.0 0.00 0.00 0.00 29 1020.5
20260831143027 19 74 1.6 0.0 0.00 0.00 0.00 22 1020.8
20260831141523 18 81 0.0 0.0 0.00 0.00 0.00 10 1020.9
20260831140019 18 82 1.6 0.0 0.00 0.00 0.00 5 1020.9
20260831134515 18 106 1.6 0.0 0.00 0.00 0.00 100 1020.7
20260831133020 18 174 1.6 0.0 0.00 0.00 0.00 100 1020.7
20260831131530 17 224 0.0 0.0 0.00 0.00 0.00 100 1020.5
20260831130009 17 229 0.0 0.0 0.00 0.00 0.00 100 1020.5
20260831124505 17 230 0.0 0.0 0.00 0.00 0.00 100 1020.7
20260831123100 17 230 0.0 0.0 0.00 0.00 0.00 100 1020.8
20260831121553 16 230 0.0 0.0 0.00 0.00 0.00 100 1020.8
20260831120049 16 230 0.0 0.0 0.00 0.00 0.00 100 1020.7
20260831114544 16 230 0.0 0.0 0.00 0.00 0.00 100 1020.7
20260831113041 -17 0.0 0.0 0.00 0.00 0.00 1020.4
20260831111536 -17 0.0 0.0 0.00 0.00 0.00 1020.7
20260831110037 -17 0.0 0.0 0.00 0.00 0.00 1020.4
20260831104536 -17 0.0 0.0 0.00 0.00 0.00 1020.6
20260831103029 -17 0.0 0.0 0.00 0.00 0.00 1020.6
20260831101520 16 230 0.0 0.0 0.00 0.00 0.00 100 1020.3
20260831100016 16 230 0.0 0.0 0.00 0.00 0.00 100 1020.3
20260831094512 16 230 0.0 0.0 0.00 0.00 0.00 100 1020.3
20260831093014 16 230 0.0 0.0 0.00 0.00 0.00 100 1020.3
20260831091505 16 230 0.0 0.0 0.00 0.00 0.00 100 1020.3
20260831090001 16 230 0.0 0.0 0.00 0.00 0.00 100 1020.3
20260831084557 16 230 0.0 0.0 0.00 0.00 0.00 100 1020.3
20260831083053 16 230 0.0 0.0 0.00 0.00 0.00 100 1020.4
20260831081549 16 230 0.0 0.0 0.00 0.00 0.00 100 1020.4
20260831080045 16 230 0.0 0.0 0.00 0.00 0.00 100 1020.3
20260831074540 16 230 0.0 0.0 0.00 0.00 0.00 100 1020.3
20260831073038 16 230 0.0 0.0 0.00 0.00 0.00 100 1019.9
20260831071534 16 230 0.0 0.0 0.00 0.00 0.00 100 1019.9
20260831070030 16 230 0.0 0.0 0.00 0.00 0.00 100 1020.0
20260831064527 16 230 0.0 0.0 0.00 0.00 0.00 100 1020.3
20260831063023 16 230 0.0 0.0 0.00 0.00 0.00 100 1020.4
20260831061519 16 230 0.0 0.0 0.00 0.00 0.00 100 1020.5
20260831060014 16 230 1.6 0.0 0.00 0.00 0.00 100 1020.6
20260831054512 16 230 0.0 0.0 0.00 0.00 0.00 100 1020.7
20260831053006 16 230 0.0 0.0 0.00 0.00 0.00 100 1020.6
20260831051502 16 231 0.0 0.0 0.00 0.00 0.00 100 1020.6
20260831050058 16 231 0.0 0.0 0.00 0.00 0.00 100 1020.7
20260831044601 16 231 0.0 0.0 0.00 0.00 0.00 100 1020.7
20260831043050 16 229 0.0 0.0 0.00 0.00 0.00 100 1020.7
20260831040043 16 229 0.0 0.0 0.00 0.00 0.00 100 1020.9
20260831034537 16 229 0.0 0.0 0.00 0.00 0.03 100 1020.9
20260831033036 16 229 0.0 0.0 0.00 0.00 0.03 100 1020.9
20260831031534 16 228 0.0 0.0 0.00 0.00 0.03 100 1020.9
20260831030031 16 228 0.0 0.0 0.00 0.00 0.03 100 1020.9
20260831024528 16 228 1.6 0.0 0.00 0.00 0.03 100 1020.9
20260831023020 16 229 0.0 0.0 0.00 0.00 0.03 100 1020.9
20260831021525 17 229 0.0 0.0 0.00 0.00 0.03 100 1020.8
20260831020013 17 229 0.0 0.0 0.00 0.00 0.03 100 1020.9
20260831014517 17 229 1.6 0.0 0.00 0.00 0.03 100 1020.9
20260831013005 17 225 4.8 0.0 0.00 0.00 0.03 100 1020.9